KLM2450 FAGG-FACT

Flight info

Callsign KLM2450
Flight time N/A
Altitude 26000
Route APGUP DCT ETBUL UQ49 ESRUK UQ51 GETEN GETEN1C
Aircraft B738/M-SDE2E3FGHIRWXY/LB1

Departure

Time 2026-05-09 00:59
Airport George Airport (FAGG)

Arrival

Time N/A
Airport Cape Town International Airport (FACT)
Time Latitude Longitude Altitude Speed Heading
2026-05-09 00:35 -34.00203 22.38124 644 ft 0 kts 56°
2026-05-09 00:53 -34.00214 22.38105 644 ft 7 kts 57°
2026-05-09 00:53 -34.00223 22.38078 644 ft 7 kts 96°
2026-05-09 00:53 -34.00213 22.38052 644 ft 7 kts 145°
2026-05-09 00:53 -34.00210 22.38049 644 ft 0 kts 148°
2026-05-09 00:55 -34.00211 22.38050 645 ft 0 kts 148°
2026-05-09 00:55 -34.00215 22.38053 644 ft 1 kts 148°
2026-05-09 00:56 -34.00240 22.38073 644 ft 11 kts 144°
2026-05-09 00:56 -34.00304 22.38169 645 ft 17 kts 116°
2026-05-09 00:56 -34.00326 22.38317 644 ft 20 kts 88°
2026-05-09 00:56 -34.00322 22.38491 644 ft 22 kts 88°
2026-05-09 00:57 -34.00315 22.38664 644 ft 16 kts 88°
2026-05-09 00:57 -34.00312 22.38814 644 ft 19 kts 92°
2026-05-09 00:57 -34.00397 22.38914 650 ft 18 kts 178°
2026-05-09 00:57 -34.00489 22.38918 656 ft 10 kts 176°
2026-05-09 00:58 -34.00521 22.38857 657 ft 11 kts 268°
2026-05-09 00:58 -34.00528 22.38549 649 ft 72 kts 268°
2026-05-09 00:58 -34.00558 22.37669 644 ft 136 kts 268°
2026-05-09 00:58 -34.00624 22.36422 1106 ft 152 kts 265°
2026-05-09 00:59 -34.00864 22.35226 2087 ft 144 kts 248°
2026-05-09 00:59 -34.01474 22.34236 2723 ft 155 kts 227°
2026-05-09 00:59 -34.01862 22.32992 3333 ft 164 kts 268°
2026-05-09 00:59 -34.01827 22.31548 3900 ft 179 kts 275°
2026-05-09 01:00 -34.01651 22.30010 4462 ft 195 kts 287°
2026-05-09 01:00 -34.01230 22.28385 4957 ft 216 kts 287°
2026-05-09 01:00 -34.00757 22.26563 5234 ft 236 kts 287°
2026-05-09 01:00 -34.00265 22.24660 6042 ft 240 kts 287°
2026-05-09 01:01 -33.99934 22.22714 6801 ft 241 kts 274°
2026-05-09 01:01 -33.99897 22.20694 7604 ft 242 kts 270°
2026-05-09 01:01 -33.99906 22.18650 8380 ft 246 kts 270°
2026-05-09 01:01 -33.99911 22.16576 9238 ft 255 kts 270°
2026-05-09 01:02 -33.99915 22.14377 9917 ft 268 kts 270°
2026-05-09 01:02 -33.99921 22.12084 10542 ft 282 kts 269°
2026-05-09 01:02 -33.99928 22.09648 11065 ft 299 kts 269°
2026-05-09 01:02 -33.99936 22.07068 11552 ft 317 kts 269°
2026-05-09 01:03 -33.99942 22.04374 12248 ft 325 kts 269°
2026-05-09 01:03 -33.99948 22.01627 13038 ft 330 kts 269°
2026-05-09 01:03 -33.99953 21.98841 13834 ft 334 kts 269°
2026-05-09 01:03 -33.99957 21.96024 14634 ft 339 kts 269°
2026-05-09 01:04 -33.99961 21.93171 15393 ft 343 kts 269°
2026-05-09 01:04 -33.99964 21.90276 16144 ft 347 kts 269°
2026-05-09 01:04 -33.99967 21.87356 16868 ft 351 kts 269°
2026-05-09 01:04 -33.99968 21.84398 17581 ft 355 kts 269°
2026-05-09 01:05 -33.99970 21.81409 18267 ft 359 kts 269°
2026-05-09 01:05 -33.99970 21.78382 18944 ft 363 kts 269°
2026-05-09 01:05 -33.99969 21.72238 20226 ft 370 kts 269°
2026-05-09 01:06 -33.99967 21.69124 20837 ft 374 kts 269°
2026-05-09 01:06 -33.99965 21.65975 21432 ft 377 kts 269°
2026-05-09 01:06 -33.99961 21.62802 22009 ft 380 kts 269°
2026-05-09 01:06 -33.99957 21.59642 22539 ft 383 kts 269°
2026-05-09 01:07 -33.99952 21.56413 23088 ft 386 kts 269°
2026-05-09 01:07 -33.99945 21.53175 23657 ft 388 kts 269°
2026-05-09 01:07 -33.99938 21.49942 24390 ft 385 kts 269°
2026-05-09 01:07 -33.99930 21.46722 25029 ft 384 kts 269°
2026-05-09 01:08 -33.99921 21.43506 25651 ft 383 kts 269°
2026-05-09 01:08 -33.99911 21.40288 26009 ft 388 kts 268°
2026-05-09 01:08 -33.99902 21.37012 26028 ft 391 kts 269°
2026-05-09 01:08 -33.99877 21.33762 26034 ft 385 kts 269°
2026-05-09 01:09 -33.99829 21.30544 26040 ft 383 kts 269°
2026-05-09 01:09 -33.99774 21.27334 26042 ft 383 kts 269°
2026-05-09 01:09 -33.99724 21.24129 26033 ft 382 kts 269°
2026-05-09 01:09 -33.99681 21.20941 26042 ft 380 kts 269°
2026-05-09 01:10 -33.99641 21.17752 26038 ft 380 kts 269°
2026-05-09 01:10 -33.99598 21.14571 26041 ft 379 kts 269°
2026-05-09 01:10 -33.99552 21.11396 26049 ft 379 kts 269°
2026-05-09 01:10 -33.99504 21.08220 26045 ft 379 kts 269°
2026-05-09 01:11 -33.99455 21.05041 26049 ft 378 kts 268°
2026-05-09 01:11 -33.99406 21.01877 26038 ft 378 kts 268°
2026-05-09 01:11 -33.99358 20.98753 26030 ft 377 kts 268°
2026-05-09 01:11 -33.99308 20.95600 26028 ft 376 kts 268°
2026-05-09 01:12 -33.99258 20.92441 26037 ft 377 kts 268°
2026-05-09 01:12 -33.99207 20.89285 26043 ft 377 kts 268°
2026-05-09 01:12 -33.99154 20.86128 26048 ft 377 kts 268°
2026-05-09 01:12 -33.99101 20.82976 26046 ft 376 kts 268°
2026-05-09 01:13 -33.99047 20.79817 26038 ft 377 kts 268°
2026-05-09 01:13 -33.98992 20.76666 26036 ft 375 kts 268°
2026-05-09 01:13 -33.98935 20.73523 26032 ft 375 kts 268°
2026-05-09 01:13 -33.98880 20.70381 26041 ft 376 kts 268°
2026-05-09 01:14 -33.98824 20.67230 26039 ft 376 kts 268°
2026-05-09 01:14 -33.98767 20.64093 26043 ft 375 kts 268°
2026-05-09 01:14 -33.98709 20.60949 26050 ft 376 kts 268°
2026-05-09 01:14 -33.98650 20.57802 26041 ft 376 kts 268°
2026-05-09 01:15 -33.98590 20.54660 26043 ft 375 kts 268°
2026-05-09 01:15 -33.98530 20.51520 25998 ft 374 kts 268°
2026-05-09 01:15 -33.98469 20.48386 25975 ft 375 kts 268°
2026-05-09 01:15 -33.98408 20.45274 26027 ft 377 kts 268°
2026-05-09 01:16 -33.98346 20.42121 26033 ft 376 kts 268°
2026-05-09 01:16 -33.98281 20.38977 26027 ft 375 kts 268°
2026-05-09 01:16 -33.98217 20.35835 26037 ft 376 kts 268°
2026-05-09 01:17 -33.98085 20.29542 26028 ft 375 kts 268°
2026-05-09 01:17 -33.98019 20.26403 26028 ft 375 kts 268°
2026-05-09 01:17 -33.97951 20.23258 26029 ft 375 kts 268°
2026-05-09 01:17 -33.97883 20.20118 26027 ft 375 kts 268°
2026-05-09 01:18 -33.97814 20.16968 26023 ft 376 kts 268°